GW6898 Weather Reports


time (UTC)temp
C
wind
direction
speed
KPH
gust
KPH
rain 1hr
cm
rain 24hr
cm
rain mn
cm
humidity
%
barometer
mb
20260507224508 9 353 0.0 3.2 0.00 0.41 0.00 90 1015.2
20260507223012 10 35 0.0 1.6 0.00 0.41 0.00 90 1015.2
20260507221516 10 185 0.0 1.6 0.00 0.41 0.00 90 1015.0
20260507220023 10 12 0.0 0.0 0.00 0.43 0.00 89 1014.9
20260507214504 10 11 0.0 1.6 0.00 0.46 0.43 88 1014.8
20260507213014 11 173 0.0 0.0 0.00 0.46 0.43 88 1014.8
20260507211519 11 346 0.0 3.2 0.00 0.48 0.43 88 1014.9
20260507210019 11 202 0.0 1.6 0.00 0.53 0.43 87 1014.9
20260507204522 11 181 1.6 4.8 0.00 0.58 0.43 86 1014.7
20260507203006 11 1 1.6 3.2 0.00 0.61 0.43 85 1014.7
20260507201509 12 188 0.0 3.2 0.00 0.66 0.43 82 1014.7
20260507200012 13 69 0.0 1.6 0.00 0.71 0.43 80 1015.0
20260507194519 13 221 0.0 1.6 0.00 0.71 0.43 79 1014.9
20260507193023 13 226 0.0 3.2 0.00 0.74 0.43 78 1014.8
20260507191525 14 167 0.0 4.8 0.00 0.74 0.43 77 1014.5
20260507190011 15 8 0.0 4.8 0.00 0.74 0.43 74 1014.2
20260507184515 16 8 3.2 3.2 0.00 0.74 0.43 71 1014.0
20260507183022 16 191 1.6 3.2 0.00 0.76 0.43 67 1013.9
20260507181529 17 167 1.6 4.8 0.00 0.76 0.43 61 1013.8
20260507180027 19 162 3.2 4.8 0.00 0.76 0.43 55 1013.5
20260507174514 21 174 1.6 3.2 0.00 0.79 0.43 46 1013.3
20260507173030 21 146 1.6 4.8 0.00 0.84 0.43 44 1013.2
20260507171524 21 96 1.6 6.4 0.00 0.86 0.43 44 1013.1
20260507170026 21 158 1.6 6.4 0.00 0.86 0.43 44 1013.0
20260507164527 21 150 1.6 6.4 0.00 0.97 0.43 43 1013.2
20260507163016 21 233 0.0 6.4 0.00 1.04 0.43 43 1013.1
20260507161521 21 239 0.0 6.4 0.00 1.42 0.43 43 1013.1
20260507160026 21 118 1.6 9.7 0.00 1.91 0.43 43 1013.0
20260507154525 21 311 4.8 9.7 0.00 2.06 0.43 41 1013.1
20260507153025 21 293 0.0 9.7 0.00 2.08 0.43 43 1013.2
20260507151514 21 168 4.8 11.3 0.00 2.18 0.43 42 1013.2
20260507150025 21 154 6.4 12.9 0.00 2.18 0.43 43 1013.4
20260507144529 21 198 0.0 12.9 0.00 2.18 0.43 43 1013.4
20260507143034 21 129 6.4 14.5 0.00 2.21 0.43 42 1013.6
20260507141528 21 163 6.4 17.7 0.00 2.21 0.43 44 1013.7
20260507140022 21 226 1.6 14.5 0.00 2.84 0.43 42 1013.7
20260507134527 21 156 1.6 11.3 0.00 2.84 0.43 42 1013.9
20260507133025 21 103 3.2 11.3 0.00 2.84 0.43 44 1013.9
20260507131531 20 193 6.4 12.9 0.00 2.84 0.43 46 1014.0
20260507130027 21 188 3.2 9.7 0.00 2.84 0.43 42 1014.1
20260507124529 21 228 3.2 8.0 0.00 2.84 0.43 43 1014.1
20260507123023 21 168 6.4 14.5 0.00 2.84 0.43 46 1014.1
20260507121528 21 156 6.4 12.9 0.00 2.84 0.43 44 1014.2
20260507120027 21 149 8.0 17.7 0.00 2.84 0.43 44 1014.3
20260507114515 21 342 4.8 11.3 0.00 2.84 0.43 48 1014.5
20260507113020 21 198 3.2 11.3 0.00 2.84 0.43 49 1014.6
20260507111504 20 269 3.2 16.1 0.00 2.84 0.43 50 1014.7
20260507110010 20 117 6.4 14.5 0.00 2.84 0.43 49 1014.9
20260507104516 19 228 3.2 6.4 0.00 2.84 0.43 55 1015.0
20260507103020 19 156 1.6 12.9 0.00 2.84 0.43 59 1015.2
20260507101522 18 214 1.6 11.3 0.00 2.84 0.43 64 1015.3
20260507100032 17 167 0.0 8.0 0.00 2.84 0.43 67 1015.4
20260507094509 16 149 1.6 8.0 0.00 2.84 0.43 70 1015.5
20260507093015 17 321 3.2 6.4 0.00 2.84 0.43 71 1015.5
20260507091529 16 143 3.2 9.7 0.00 2.84 0.43 72 1015.6
20260507090032 16 311 4.8 8.0 0.00 2.84 0.43 74 1015.7
20260507084529 16 191 0.0 4.8 0.00 2.84 0.43 77 1015.6
20260507083014 15 25 0.0 4.8 0.00 2.84 0.43 80 1015.6
20260507081520 14 283 0.0 3.2 0.00 2.87 0.43 86 1015.5
20260507080024 12 36 0.0 3.2 0.00 2.87 0.43 90 1015.5
20260507074527 12 300 1.6 4.8 0.00 2.87 0.43 93 1015.5
20260507073029 11 168 0.0 0.0 0.00 2.87 0.43 95 1015.5
20260507071514 11 302 0.0 4.8 0.00 2.87 0.43 95 1015.5
20260507070024 10 312 0.0 3.2 0.00 2.87 0.43 95 1015.5
20260507064525 10 339 3.2 4.8 0.00 2.87 0.43 95 1015.5
20260507063026 10 1 0.0 3.2 0.00 2.87 0.43 95 1015.4
20260507061529 9 298 0.0 0.0 0.00 2.97 0.43 95 1015.3
20260507060016 9 225 0.0 1.6 0.00 3.02 0.43 95 1015.1
20260507054530 9 319 3.2 4.8 0.00 3.02 0.43 95 1015.0
20260507053024 9 57 3.2 6.4 0.00 3.02 0.43 95 1014.8
20260507051526 8 231 0.0 4.8 0.00 3.02 0.43 95 1014.8
20260507050032 8 191 1.6 3.2 0.00 3.02 0.43 95 1014.7
20260507044517 8 198 3.2 4.8 0.00 3.02 0.43 95 1014.6
20260507043024 9 335 0.0 3.2 0.00 3.05 0.43 95 1014.4
20260507041523 9 349 0.0 0.0 0.00 3.12 0.43 94 1014.3
20260507040026 9 283 0.0 1.6 0.00 3.25 0.43 95 1014.1
20260507034514 9 176 1.6 4.8 0.00 3.73 0.43 94 1014.0
20260507033023 9 195 0.0 0.0 0.00 3.91 0.43 94 1013.9
20260507031521 9 195 0.0 3.2 0.00 3.96 0.43 94 1013.9
20260507030008 10 14 0.0 0.0 0.00 3.96 0.43 94 1013.8
20260507024512 10 20 0.0 1.6 0.00 4.14 0.43 93 1013.9
20260507023014 10 202 0.0 3.2 0.00 4.50 0.43 93 1013.8
20260507021520 10 167 1.6 3.2 0.00 4.60 0.43 93 1014.0
20260507020029 11 139 0.0 0.0 0.00 4.65 0.43 92 1013.8
20260507014510 11 160 0.0 1.6 0.00 4.65 0.43 92 1013.7
20260507013030 11 200 1.6 8.0 0.00 4.65 0.43 91 1013.7
20260507011518 11 61 8.0 9.7 0.03 4.65 0.43 92 1013.7
20260507010026 11 46 4.8 6.4 0.10 4.65 0.43 92 1013.7
20260507004524 11 66 1.6 3.2 0.13 4.65 0.43 92 1013.9
20260507003008 11 59 1.6 9.7 0.18 4.65 0.43 92 1013.8
20260507001512 11 72 3.2 8.0 0.23 4.62 0.41 92 1014.0
20260507000018 11 30 0.0 6.4 0.30 4.55 0.33 92 1014.1
20260506234522 11 55 4.8 4.8 0.28 4.52 0.30 92 1013.9
20260506233027 11 73 3.2 6.4 0.23 4.62 0.25 92 1014.2
20260506231512 11 55 1.6 4.8 0.15 5.41 0.18 91 1014.3
20260506230016 11 8 0.0 1.6 0.03 5.74 0.03 91 1014.3